,,Stat5,,Stat1,,Stat2,,Stat3,,Stat4,,Wind1,,Wind1,
time,status,PA1M_AVG,status,PR1M_SUM,status,RH1M_AVG,status,SR1M_AVG,status,TA1M_AVG,status,W1dAve1m,status,W1sAve1m,
2000-08-15, 00:00:01,VALID,919.622,VALID,0,VALID,98.0204,VALID,0,VALID,19.4932,VALID,248,VALID,0,
2000-08-15, 00:01:00,VALID,919.622,VALID,0,VALID,98.0369,VALID,0,VALID,19.5093,VALID,244,VALID,0,
2000-08-15, 00:02:00,VALID,919.645,VALID,0,VALID,98.0547,VALID,0,VALID,19.5357,VALID,163,VALID,0.0572917,
2000-08-15, 00:03:00,VALID,919.648,VALID,0,VALID,97.967,VALID,0.0169808,VALID,19.5421,VALID,132,VALID,0,
2000-08-15, 00:04:00,VALID,919.662,VALID,0,VALID,97.7406,VALID,0.0169808,VALID,19.529,VALID,130,VALID,0,
2000-08-15, 00:05:00,VALID,919.656,VALID,0,VALID,97.616,VALID,-0.0169808,VALID,19.5317,VALID,122,VALID,0.346628,
2000-08-15, 00:06:00,VALID,919.662,VALID,0,VALID,97.555,VALID,0,VALID,19.5581,VALID,117,VALID,0.441723,
2000-08-15, 00:07:00,VALID,919.656,VALID,0,VALID,97.5613,VALID,0,VALID,19.5581,VALID,122,VALID,0.160714,
2000-08-15, 00:08:00,VALID,919.663,VALID,0,VALID,97.4164,VALID,0,VALID,19.5583,VALID,122,VALID,0,
2000-08-15, 00:09:00,VALID,919.659,VALID,0,VALID,97.232,VALID,0,VALID,19.5484,VALID,122,VALID,0,
2000-08-15, 00:10:00,VALID,919.639,VALID,0,VALID,97.129,VALID,0,VALID,19.5484,VALID,122,VALID,0,
2000-08-15, 00:11:00,VALID,919.622,VALID,0,VALID,97.0756,VALID,0.0169808,VALID,19.5389,VALID,122,VALID,0,
2000-08-15, 00:12:00,VALID,919.61,VALID,0,VALID,97.1035,VALID,0,VALID,19.5486,VALID,101,VALID,0.251478,
2000-08-15, 00:13:00,VALID,919.581,VALID,0,VALID,97.2167,VALID,0.0169808,VALID,19.5774,VALID,86,VALID,0.284951,
2000-08-15, 00:14:00,VALID,919.578,VALID,0,VALID,97.2104,VALID,-0.0169808,VALID,19.5745,VALID,86,VALID,0.351997,
2000-08-15, 00:15:00,VALID,919.565,VALID,0,VALID,96.8085,VALID,0,VALID,19.5456,VALID,92,VALID,0.761102,
2000-08-15, 00:16:00,VALID,919.555,VALID,0,VALID,96.6305,VALID,0.0169808,VALID,19.5389,VALID,103,VALID,0.30891,
2000-08-15, 00:17:00,VALID,919.548,VALID,0,VALID,96.6725,VALID,0,VALID,19.5257,VALID,104,VALID,0.080193,
2000-08-15, 00:18:00,VALID,919.531,VALID,0,VALID,96.5835,VALID,0,VALID,19.5255,VALID,123,VALID,0.284128,
2000-08-15, 00:19:00,VALID,919.513,VALID,0,VALID,96.5046,VALID,0.0169808,VALID,19.5322,VALID,139,VALID,0.336782,
2000-08-15, 00:20:00,VALID,919.507,VALID,0,VALID,96.422,VALID,0.0169808,VALID,19.5064,VALID,134,VALID,0.220806,
2000-08-15, 00:21:00,VALID,919.504,VALID,0,VALID,96.3202,VALID,0.0169808,VALID,19.4937,VALID,134,VALID,0.00802365,
2000-08-15, 00:22:00,VALID,919.491,VALID,0,VALID,96.4563,VALID,0.0169808,VALID,19.4934,VALID,134,VALID,0,
2000-08-15, 00:23:00,VALID,919.507,VALID,0,VALID,96.6686,VALID,0,VALID,19.5034,VALID,134,VALID,0,
2000-08-15, 00:24:00,VALID,919.499,VALID,0,VALID,96.9115,VALID,0,VALID,19.5131,VALID,134,VALID,0,
2000-08-15, 00:25:00,VALID,919.492,VALID,0,VALID,97.0781,VALID,0,VALID,19.5257,VALID,134,VALID,0,
2000-08-15, 00:26:00,VALID,919.481,VALID,0,VALID,97.1582,VALID,0,VALID,19.5352,VALID,131,VALID,0,
2000-08-15, 00:27:00,VALID,919.458,VALID,0,VALID,97.0082,VALID,0.0169808,VALID,19.5193,VALID,127,VALID,0,
2000-08-15, 00:28:00,VALID,919.433,VALID,0,VALID,96.923,VALID,0,VALID,19.5061,VALID,127,VALID,0,
2000-08-15, 00:29:00,VALID,919.407,VALID,0,VALID,96.792,VALID,0.0169808,VALID,19.4738,VALID,127,VALID,0,
2000-08-15, 00:30:00,VALID,919.389,VALID,0,VALID,96.9827,VALID,0,VALID,19.451,VALID,127,VALID,0,
2000-08-15, 00:31:00,VALID,919.355,VALID,0,VALID,97.1773,VALID,0,VALID,19.4743,VALID,127,VALID,0,
2000-08-15, 00:32:00,VALID,919.333,VALID,0,VALID,97.2917,VALID,0,VALID,19.4609,VALID,127,VALID,0,
2000-08-15, 00:33:00,VALID,919.326,VALID,0,VALID,97.3261,VALID,0,VALID,19.4547,VALID,127,VALID,0,
2000-08-15, 00:34:00,VALID,919.317,VALID,0,VALID,97.3159,VALID,0,VALID,19.4417,VALID,127,VALID,0,
2000-08-15, 00:35:00,VALID,919.319,VALID,0,VALID,97.3757,VALID,0,VALID,19.4258,VALID,127,VALID,0,
2000-08-15, 00:36:00,VALID,919.309,VALID,0,VALID,97.5168,VALID,0,VALID,19.403,VALID,127,VALID,0,
2000-08-15, 00:37:00,VALID,919.297,VALID,0,VALID,97.6834,VALID,0,VALID,19.4191,VALID,127,VALID,0,
2000-08-15, 00:38:00,VALID,919.28,VALID,0,VALID,97.808,VALID,0,VALID,19.4263,VALID,127,VALID,0,
2000-08-15, 00:39:00,VALID,919.273,VALID,0,VALID,97.8182,VALID,-0.0169808,VALID,19.3965,VALID,127,VALID,0,
2000-08-15, 00:40:00,VALID,919.27,VALID,0,VALID,97.8703,VALID,0.0169808,VALID,19.3866,VALID,127,VALID,0,
2000-08-15, 00:41:00,VALID,919.254,VALID,0,VALID,97.9225,VALID,0.0169808,VALID,19.3704,VALID,127,VALID,0,
2000-08-15, 00:42:00,VALID,919.248,VALID,0,VALID,97.9886,VALID,0.0169808,VALID,19.3674,VALID,127,VALID,0,
2000-08-15, 00:43:00,VALID,919.246,VALID,0,VALID,98.0649,VALID,0.0169808,VALID,19.3739,VALID,126,VALID,0,
2000-08-15, 00:44:00,VALID,919.237,VALID,0,VALID,98.103,VALID,0.0169808,VALID,19.3674,VALID,126,VALID,0,
2000-08-15, 00:45:00,VALID,919.229,VALID,0,VALID,98.145,VALID,0,VALID,19.3376,VALID,108,VALID,0,
2000-08-15, 00:46:00,VALID,919.219,VALID,0,VALID,98.1946,VALID,0.0509425,VALID,19.3443,VALID,24,VALID,0,
2000-08-15, 00:47:00,VALID,919.207,VALID,0,VALID,98.2035,VALID,0.0169808,VALID,19.3289,VALID,24,VALID,0,
2000-08-15, 00:48:00,VALID,919.193,VALID,0,VALID,98.2772,VALID,0,VALID,19.3289,VALID,52,VALID,0,
2000-08-15, 00:49:00,VALID,919.196,VALID,0,VALID,98.3332,VALID,0.0339617,VALID,19.3217,VALID,85,VALID,0,
2000-08-15, 00:50:00,VALID,919.199,VALID,0,VALID,98.4375,VALID,0,VALID,19.3543,VALID,85,VALID,0,
2000-08-15, 00:51:00,VALID,919.195,VALID,0,VALID,98.5392,VALID,0.0169808,VALID,19.3806,VALID,87,VALID,0,
2000-08-15, 00:52:00,VALID,919.184,VALID,0,VALID,98.5735,VALID,0.0169808,VALID,19.4097,VALID,89,VALID,0,
2000-08-15, 00:53:00,VALID,919.181,VALID,0,VALID,98.5824,VALID,0.0169808,VALID,19.406,VALID,91,VALID,0,
2000-08-15, 00:54:00,VALID,919.169,VALID,0,VALID,98.6002,VALID,0,VALID,19.4256,VALID,93,VALID,0,
2000-08-15, 00:55:00,VALID,919.154,VALID,0,VALID,98.557,VALID,0,VALID,19.4191,VALID,93,VALID,0,
2000-08-15, 00:56:00,VALID,919.135,VALID,0,VALID,98.5265,VALID,0.0339617,VALID,19.4256,VALID,93,VALID,0,
2000-08-15, 00:57:00,VALID,919.123,VALID,0,VALID,98.5544,VALID,0.0169808,VALID,19.4251,VALID,93,VALID,0,
2000-08-15, 00:58:00,VALID,919.11,VALID,0,VALID,98.5608,VALID,0,VALID,19.4417,VALID,93,VALID,0,
2000-08-15, 00:59:00,VALID,919.113,VALID,0,VALID,98.5087,VALID,-0.0509425,VALID,19.4321,VALID,93,VALID,0,
2000-08-15, 01:00:00,VALID,919.116,VALID,0,VALID,98.4756,VALID,-0.0169808,VALID,19.4425,VALID,93,VALID,0,
2000-08-15, 01:01:00,VALID,919.115,VALID,0,VALID,98.4196,VALID,-0.0169808,VALID,19.4226,VALID,93,VALID,0,
2000-08-15, 01:02:00,VALID,919.108,VALID,0,VALID,98.384,VALID,-0.0509425,VALID,19.4261,VALID,93,VALID,0,
2000-08-15, 01:03:00,VALID,919.108,VALID,0,VALID,98.3891,VALID,-0.0509425,VALID,19.4325,VALID,93,VALID,0,
2000-08-15, 01:04:00,VALID,919.095,VALID,0,VALID,98.3891,VALID,-0.0169808,VALID,19.4291,VALID,93,VALID,0,
2000-08-15, 01:05:00,VALID,919.104,VALID,0,VALID,98.3344,VALID,-0.0679233,VALID,19.4395,VALID,93,VALID,0,
2000-08-15, 01:06:00,VALID,919.097,VALID,0,VALID,98.3001,VALID,-0.0509425,VALID,19.4457,VALID,93,VALID,0,
2000-08-15, 01:07:00,VALID,919.092,VALID,0,VALID,98.2785,VALID,-0.0509425,VALID,19.4422,VALID,92,VALID,0,
2000-08-15, 01:08:00,VALID,919.084,VALID,0,VALID,98.192,VALID,-0.0339617,VALID,19.4393,VALID,90,VALID,0,
2000-08-15, 01:09:00,VALID,919.065,VALID,0,VALID,98.1958,VALID,-0.0509425,VALID,19.4355,VALID,91,VALID,0,
2000-08-15, 01:10:00,VALID,919.044,VALID,0,VALID,98.2327,VALID,-0.0679233,VALID,19.445,VALID,93,VALID,0,
2000-08-15, 01:11:00,VALID,919.013,VALID,0,VALID,98.2543,VALID,-0.0509425,VALID,19.4584,VALID,93,VALID,0,
2000-08-15, 01:12:00,VALID,918.993,VALID,0,VALID,98.2048,VALID,-0.0339617,VALID,19.4557,VALID,93,VALID,0,
2000-08-15, 01:13:00,VALID,918.972,VALID,0,VALID,98.2264,VALID,-0.0509425,VALID,19.4519,VALID,88,VALID,0.0555099,
2000-08-15, 01:14:00,VALID,918.955,VALID,0,VALID,98.2543,VALID,-0.0339617,VALID,19.4678,VALID,94,VALID,0.457465,
2000-08-15, 01:15:00,VALID,918.953,VALID,0,VALID,98.3027,VALID,-0.0169808,VALID,19.4905,VALID,101,VALID,0.261308,
2000-08-15, 01:16:00,VALID,918.954,VALID,0,VALID,98.323,VALID,-0.0339617,VALID,19.5001,VALID,95,VALID,0,
2000-08-15, 01:17:00,VALID,918.952,VALID,0,VALID,98.2518,VALID,-0.0509425,VALID,19.4842,VALID,94,VALID,0,
2000-08-15, 01:18:00,VALID,918.952,VALID,0,VALID,98.2467,VALID,-0.0339617,VALID,19.4877,VALID,94,VALID,0,
2000-08-15, 01:19:00,VALID,918.942,VALID,0,VALID,98.2569,VALID,-0.0339617,VALID,19.5004,VALID,96,VALID,0,
2000-08-15, 01:20:00,VALID,918.929,VALID,0,VALID,98.2747,VALID,-0.0339617,VALID,19.4969,VALID,104,VALID,0.239515,
2000-08-15, 01:21:00,VALID,918.899,VALID,0,VALID,98.2899,VALID,-0.0339617,VALID,19.5225,VALID,98,VALID,0.86761,
2000-08-15, 01:22:00,VALID,918.89,VALID,0,VALID,98.2416,VALID,-0.0509425,VALID,19.5131,VALID,98,VALID,0.633929,
2000-08-15, 01:23:00,VALID,918.883,VALID,0,VALID,98.2124,VALID,-0.0339617,VALID,19.5165,VALID,96,VALID,0.56891,
2000-08-15, 01:24:00,VALID,918.883,VALID,0,VALID,98.2251,VALID,-0.0509425,VALID,19.4964,VALID,96,VALID,0.544034,
2000-08-15, 01:25:00,VALID,918.877,VALID,0,VALID,98.2073,VALID,-0.0339617,VALID,19.4833,VALID,91,VALID,0.177455,
2000-08-15, 01:26:00,VALID,918.88,VALID,0,VALID,98.1958,VALID,-0.0339617,VALID,19.4738,VALID,90,VALID,0.125211,
2000-08-15, 01:27:00,VALID,918.876,VALID,0,VALID,98.2238,VALID,-0.0339617,VALID,19.4875,VALID,99,VALID,0.626478,
2000-08-15, 01:28:00,VALID,918.861,VALID,0,VALID,98.1895,VALID,0.0679233,VALID,19.4726,VALID,99,VALID,0.93051,
2000-08-15, 01:29:00,VALID,918.859,VALID,0,VALID,98.1717,VALID,0.0679233,VALID,19.4597,VALID,96,VALID,1.16797,
2000-08-15, 01:30:00,VALID,918.844,VALID,0,VALID,98.1145,VALID,0.101885,VALID,19.4467,VALID,94,VALID,0.80037,
2000-08-15, 01:31:00,VALID,918.825,VALID,0,VALID,98.0789,VALID,0.0849042,VALID,19.4241,VALID,94,VALID,0.395693,
2000-08-15, 01:32:00,VALID,918.823,VALID,0,VALID,98.1068,VALID,0.0849042,VALID,19.4343,VALID,321,VALID,0.393612,
2000-08-15, 01:33:00,VALID,918.81,VALID,0,VALID,98.1628,VALID,0.0849042,VALID,19.4209,VALID,303,VALID,0,
2000-08-15, 01:34:00,VALID,918.805,VALID,0,VALID,98.2505,VALID,0.0849042,VALID,19.4241,VALID,82,VALID,0.326858,
2000-08-15, 01:35:00,VALID,918.774,VALID,0,VALID,98.3077,VALID,0.0679233,VALID,19.4338,VALID,74,VALID,0.531661,
2000-08-15, 01:36:00,VALID,918.801,VALID,0,VALID,98.262,VALID,0.0849042,VALID,19.4149,VALID,32,VALID,0.497255,
2000-08-15, 01:37:00,VALID,918.822,VALID,0,VALID,98.2493,VALID,0.0509425,VALID,19.3891,VALID,330,VALID,0.39442,
2000-08-15, 01:38:00,VALID,918.827,VALID,0,VALID,98.3027,VALID,0.0679233,VALID,19.3923,VALID,71,VALID,0.893429,
2000-08-15, 01:39:00,VALID,918.849,VALID,0,VALID,98.3751,VALID,0.101885,VALID,19.4122,VALID,60,VALID,0.191288,
2000-08-15, 01:40:00,VALID,918.834,VALID,0,VALID,98.44,VALID,0.0169808,VALID,19.4018,VALID,106,VALID,0.705357,
2000-08-15, 01:41:00,VALID,918.837,VALID,0,VALID,98.4603,VALID,0.0849042,VALID,19.4015,VALID,91,VALID,1.02851,
2000-08-15, 01:42:00,VALID,918.817,VALID,0,VALID,98.4807,VALID,0.0509425,VALID,19.3985,VALID,96,VALID,1.09333,
2000-08-15, 01:43:00,VALID,918.831,VALID,0,VALID,98.4603,VALID,0.0849042,VALID,19.3657,VALID,86,VALID,0.804482,
2000-08-15, 01:44:00,VALID,918.827,VALID,0,VALID,98.4578,VALID,0.101885,VALID,19.3565,VALID,94,VALID,1.24284,
2000-08-15, 01:45:00,VALID,918.823,VALID,0,VALID,98.4845,VALID,0.0849042,VALID,19.3568,VALID,90,VALID,1.50884,
2000-08-15, 01:46:00,VALID,918.829,VALID,0,VALID,98.4756,VALID,0.0509425,VALID,19.357,VALID,84,VALID,1.10684,
2000-08-15, 01:47:00,VALID,918.844,VALID,0,VALID,98.4591,VALID,0.0339617,VALID,19.3501,VALID,84,VALID,0.548483,
2000-08-15, 01:48:00,VALID,918.841,VALID,0,VALID,98.4514,VALID,0.0679233,VALID,19.3369,VALID,103,VALID,0.511102,
2000-08-15, 01:49:00,VALID,918.845,VALID,0,VALID,98.482,VALID,0.0509425,VALID,19.3501,VALID,107,VALID,0.079603,
2000-08-15, 01:50:00,VALID,918.834,VALID,0,VALID,98.4336,VALID,0.0509425,VALID,19.3372,VALID,97,VALID,0.411801,
2000-08-15, 01:51:00,VALID,918.812,VALID,0,VALID,98.4502,VALID,0.0509425,VALID,19.3439,VALID,93,VALID,0.0439189,
2000-08-15, 01:52:00,VALID,918.804,VALID,0,VALID,98.4464,VALID,0.0849042,VALID,19.3344,VALID,93,VALID,0,
2000-08-15, 01:53:00,VALID,918.795,VALID,0,VALID,98.4438,VALID,0.0849042,VALID,19.3312,VALID,93,VALID,0,
2000-08-15, 01:54:00,VALID,918.782,VALID,0,VALID,98.4514,VALID,0.0679233,VALID,19.321,VALID,93,VALID,0,
2000-08-15, 01:55:00,VALID,918.776,VALID,0,VALID,98.4832,VALID,0.0849042,VALID,19.3108,VALID,94,VALID,0.233482,
2000-08-15, 01:56:00,VALID,918.756,VALID,0,VALID,98.5036,VALID,0.0849042,VALID,19.3145,VALID,105,VALID,0.525549,
2000-08-15, 01:57:00,VALID,918.754,VALID,0,VALID,98.4781,VALID,0.0339617,VALID,19.3011,VALID,102,VALID,0.57728,
2000-08-15, 01:58:00,VALID,918.758,VALID,0,VALID,98.482,VALID,-0.0339617,VALID,19.2966,VALID,103,VALID,0.5294,
2000-08-15, 01:59:00,VALID,918.751,VALID,0,VALID,98.4718,VALID,-0.0679233,VALID,19.2775,VALID,102,VALID,0.438802,
2000-08-15, 02:00:00,VALID,918.768,VALID,0,VALID,98.4476,VALID,-0.0679233,VALID,19.2683,VALID,91,VALID,0.92866,
2000-08-15, 02:01:00,VALID,918.775,VALID,0,VALID,98.4413,VALID,-0.0509425,VALID,19.2583,VALID,91,VALID,1.17251,
2000-08-15, 02:02:00,VALID,918.775,VALID,0,VALID,98.4438,VALID,-0.0509425,VALID,19.2449,VALID,90,VALID,0.806066,
2000-08-15, 02:03:00,VALID,918.797,VALID,0,VALID,98.384,VALID,-0.0679233,VALID,19.2362,VALID,90,VALID,0.936678,
2000-08-15, 02:04:00,VALID,918.803,VALID,0,VALID,98.3662,VALID,-0.0679233,VALID,19.2263,VALID,81,VALID,0.532517,
2000-08-15, 02:05:00,VALID,918.791,VALID,0,VALID,98.3573,VALID,-0.101885,VALID,19.2263,VALID,77,VALID,0.0997122,
2000-08-15, 02:06:00,VALID,918.798,VALID,0,VALID,98.379,VALID,-0.0849042,VALID,19.2295,VALID,92,VALID,0.0232264,
2000-08-15, 02:07:00,VALID,918.788,VALID,0,VALID,98.4171,VALID,-0.0849042,VALID,19.2293,VALID,81,VALID,0.59375,
2000-08-15, 02:08:00,VALID,918.791,VALID,0,VALID,98.4006,VALID,-0.0849042,VALID,19.226,VALID,86,VALID,1.04026,
2000-08-15, 02:09:00,VALID,918.776,VALID,0,VALID,98.3713,VALID,-0.0679233,VALID,19.2228,VALID,93,VALID,1.15365,
2000-08-15, 02:10:00,VALID,918.335,VALID,0,VALID,98.4171,VALID,-0.0849042,VALID,19.2389,VALID,93,VALID,0.760938,
2000-08-15, 02:11:00,VALID,918.738,VALID,0,VALID,98.3917,VALID,-0.101885,VALID,19.2325,VALID,87,VALID,0.384713,
2000-08-15, 02:12:00,VALID,918.719,VALID,0,VALID,98.4158,VALID,-0.0339617,VALID,19.229,VALID,9,VALID,0.257813,
2000-08-15, 02:13:00,VALID,918.708,VALID,0,VALID,98.4298,VALID,-0.0679233,VALID,19.2196,VALID,332,VALID,0,
2000-08-15, 02:14:00,VALID,918.712,VALID,0,VALID,98.4705,VALID,-0.0849042,VALID,19.2392,VALID,78,VALID,0.109375,
2000-08-15, 02:15:00,VALID,918.704,VALID,0,VALID,98.4705,VALID,-0.101885,VALID,19.2263,VALID,94,VALID,0.741571,
2000-08-15, 02:16:00,VALID,918.683,VALID,0,VALID,98.4845,VALID,-0.0169808,VALID,19.2258,VALID,90,VALID,1.19362,
2000-08-15, 02:17:00,VALID,918.682,VALID,0,VALID,98.5252,VALID,-0.0339617,VALID,19.2293,VALID,70,VALID,0.366268,
2000-08-15, 02:18:00,VALID,918.693,VALID,0,VALID,98.5328,VALID,-0.0169808,VALID,19.2419,VALID,70,VALID,0.0240543,
2000-08-15, 02:19:00,VALID,918.701,VALID,0,VALID,98.5379,VALID,-0.0679233,VALID,19.2484,VALID,71,VALID,0.530828,
2000-08-15, 02:20:00,VALID,918.693,VALID,0,VALID,98.5188,VALID,-0.0169808,VALID,19.2648,VALID,90,VALID,0.862048,
2000-08-15, 02:21:00,VALID,918.673,VALID,0,VALID,98.5099,VALID,-0.0509425,VALID,19.2708,VALID,89,VALID,1.62373,
2000-08-15, 02:22:00,VALID,918.679,VALID,0,VALID,98.4832,VALID,-0.0679233,VALID,19.2775,VALID,93,VALID,1.49375,
2000-08-15, 02:23:00,VALID,918.687,VALID,0,VALID,98.4336,VALID,-0.0509425,VALID,19.2805,VALID,91,VALID,1.46795,
2000-08-15, 02:24:00,VALID,918.687,VALID,0,VALID,98.3917,VALID,-0.0509425,VALID,19.2976,VALID,71,VALID,0.866004,
2000-08-15, 02:25:00,VALID,918.713,VALID,0,VALID,98.384,VALID,-0.0509425,VALID,19.3036,VALID,197,VALID,0.147991,
2000-08-15, 02:26:00,VALID,918.719,VALID,0,VALID,98.3637,VALID,0,VALID,19.3195,VALID,234,VALID,0,
2000-08-15, 02:27:00,VALID,918.706,VALID,0,VALID,98.3319,VALID,0,VALID,19.3162,VALID,205,VALID,0,
2000-08-15, 02:28:00,VALID,918.676,VALID,0,VALID,98.3662,VALID,-0.0509425,VALID,19.3292,VALID,120,VALID,0.00986842,
2000-08-15, 02:29:00,VALID,918.646,VALID,0,VALID,98.4006,VALID,-0.0679233,VALID,19.3488,VALID,90,VALID,0.836589,
2000-08-15, 02:30:00,VALID,918.637,VALID,0,VALID,98.3955,VALID,-0.0509425,VALID,19.3617,VALID,111,VALID,0.453125,
2000-08-15, 02:31:00,VALID,918.628,VALID,0,VALID,98.3739,VALID,-0.0679233,VALID,19.3488,VALID,86,VALID,0.502111,
2000-08-15, 02:32:00,VALID,918.623,VALID,0,VALID,98.3675,VALID,0,VALID,19.3421,VALID,96,VALID,0.904642,
2000-08-15, 02:33:00,VALID,918.61,VALID,0,VALID,98.4298,VALID,-0.0339617,VALID,19.3684,VALID,100,VALID,0.661801,
2000-08-15, 02:34:00,VALID,918.584,VALID,0,VALID,98.468,VALID,0,VALID,19.3617,VALID,100,VALID,1.47044,
2000-08-15, 02:35:00,VALID,918.586,VALID,0,VALID,98.4921,VALID,-0.0339617,VALID,19.3714,VALID,88,VALID,0.968544,
2000-08-15, 02:36:00,VALID,918.615,VALID,0,VALID,98.4832,VALID,-0.0169808,VALID,19.3647,VALID,292,VALID,0.303209,
2000-08-15, 02:37:00,VALID,918.63,VALID,0,VALID,98.4425,VALID,-0.0509425,VALID,19.3518,VALID,265,VALID,0.429464,
2000-08-15, 02:38:00,VALID,918.608,VALID,0,VALID,98.4527,VALID,-0.0339617,VALID,19.3557,VALID,241,VALID,0.0400641,
2000-08-15, 02:39:00,VALID,918.608,VALID,0,VALID,98.5303,VALID,-0.0169808,VALID,19.3617,VALID,145,VALID,0.0428504,
2000-08-15, 02:40:00,VALID,918.592,VALID,0,VALID,98.5672,VALID,-0.0169808,VALID,19.3878,VALID,161,VALID,0.561161,
2000-08-15, 02:41:00,VALID,918.602,VALID,0,VALID,98.5366,VALID,-0.0169808,VALID,19.3876,VALID,254,VALID,0.720017,
2000-08-15, 02:42:00,VALID,918.6,VALID,0,VALID,98.4883,VALID,-0.0339617,VALID,19.3647,VALID,251,VALID,0.580025,
2000-08-15, 02:43:00,VALID,918.6,VALID,0,VALID,98.3561,VALID,-0.0169808,VALID,19.3262,VALID,340,VALID,0.965666,
2000-08-15, 02:44:00,VALID,918.557,VALID,0,VALID,98.0967,VALID,-0.0509425,VALID,19.3103,VALID,6,VALID,0.781684,
2000-08-15, 02:45:00,VALID,918.539,VALID,0,VALID,98.0267,VALID,-0.0169808,VALID,19.3326,VALID,269,VALID,0.0929276,
2000-08-15, 02:46:00,VALID,918.539,VALID,0,VALID,97.9733,VALID,-0.0679233,VALID,19.3458,VALID,307,VALID,0.0536318,
2000-08-15, 02:47:00,VALID,918.525,VALID,0,VALID,97.9479,VALID,-0.0509425,VALID,19.3326,VALID,128,VALID,0.307675,
2000-08-15, 02:48:00,VALID,918.51,VALID,0,VALID,97.9339,VALID,-0.0509425,VALID,19.3361,VALID,117,VALID,0.784951,
2000-08-15, 02:49:00,VALID,918.514,VALID,0,VALID,97.9848,VALID,-0.0339617,VALID,19.3456,VALID,8,VALID,0.320313,
2000-08-15, 02:50:00,VALID,918.511,VALID,0,VALID,97.9886,VALID,-0.0169808,VALID,19.3458,VALID,110,VALID,0.749178,
2000-08-15, 02:51:00,VALID,918.488,VALID,0,VALID,98.0687,VALID,-0.0849042,VALID,19.3391,VALID,13,VALID,0.527238,
2000-08-15, 02:52:00,VALID,918.48,VALID,0,VALID,98.0801,VALID,-0.0679233,VALID,19.3364,VALID,135,VALID,0.924777,
2000-08-15, 02:53:00,VALID,918.467,VALID,0,VALID,98.1094,VALID,-0.0339617,VALID,19.3227,VALID,96,VALID,1.2494,
2000-08-15, 02:54:00,VALID,918.466,VALID,0,VALID,98.0941,VALID,-0.0679233,VALID,19.3095,VALID,194,VALID,0.419744,
2000-08-15, 02:55:00,VALID,918.428,VALID,0,VALID,98.1145,VALID,-0.0849042,VALID,19.2969,VALID,101,VALID,1.3942,
2000-08-15, 02:56:00,VALID,918.417,VALID,0,VALID,98.1361,VALID,-0.0169808,VALID,19.2966,VALID,84,VALID,0.964316,
2000-08-15, 02:57:00,VALID,918.39,VALID,0,VALID,98.1946,VALID,-0.101885,VALID,19.2909,VALID,105,VALID,1.50697,
2000-08-15, 02:58:00,VALID,918.381,VALID,0,VALID,98.2849,VALID,-0.0849042,VALID,19.2948,VALID,95,VALID,1.60424,
2000-08-15, 02:59:00,VALID,918.363,VALID,0,VALID,98.2378,VALID,-0.101885,VALID,19.2658,VALID,88,VALID,1.62543,
2000-08-15, 03:00:00,VALID,918.367,VALID,0,VALID,98.1908,VALID,-0.101885,VALID,19.2461,VALID,95,VALID,2.35835,
2000-08-15, 03:01:00,VALID,918.351,VALID,0,VALID,98.2187,VALID,-0.0849042,VALID,19.2228,VALID,95,VALID,2.17504,
2000-08-15, 03:02:00,VALID,918.343,VALID,0,VALID,98.2594,VALID,-0.101885,VALID,19.2332,VALID,98,VALID,1.72335,
2000-08-15, 03:03:00,VALID,918.336,VALID,0,VALID,98.2925,VALID,-0.101885,VALID,19.2302,VALID,101,VALID,1.92188,
2000-08-15, 03:04:00,VALID,918.298,VALID,0,VALID,98.3217,VALID,-0.101885,VALID,19.2173,VALID,99,VALID,2.1193,
2000-08-15, 03:05:00,VALID,918.289,VALID,0,VALID,98.379,VALID,-0.0849042,VALID,19.2044,VALID,101,VALID,1.6544,
2000-08-15, 03:06:00,VALID,918.271,VALID,0,VALID,98.3917,VALID,-0.101885,VALID,19.185,VALID,98,VALID,1.39126,
2000-08-15, 03:07:00,VALID,918.258,VALID,0,VALID,98.3904,VALID,-0.135847,VALID,19.1684,VALID,111,VALID,0.799554,
2000-08-15, 03:08:00,VALID,918.25,VALID,0,VALID,98.3637,VALID,-0.101885,VALID,19.1562,VALID,115,VALID,0.60617,
2000-08-15, 03:09:00,VALID,918.266,VALID,0,VALID,98.3739,VALID,-0.101885,VALID,19.143,VALID,68,VALID,0.936553,
2000-08-15, 03:10:00,VALID,918.255,VALID,0,VALID,98.3561,VALID,-0.0679233,VALID,19.1167,VALID,294,VALID,0.559375,
2000-08-15, 03:11:00,VALID,918.276,VALID,0,VALID,98.3395,VALID,-0.101885,VALID,19.1169,VALID,277,VALID,0.399916,
2000-08-15, 03:12:00,VALID,918.283,VALID,0,VALID,98.3624,VALID,-0.101885,VALID,19.1102,VALID,263,VALID,0.141258,
2000-08-15, 03:13:00,VALID,918.26,VALID,0,VALID,98.3713,VALID,-0.0169808,VALID,19.1127,VALID,167,VALID,0.623561,
2000-08-15, 03:14:00,VALID,918.261,VALID,0,VALID,98.3942,VALID,-0.0169808,VALID,19.1157,VALID,85,VALID,0.943793,
2000-08-15, 03:15:00,VALID,918.242,VALID,0,VALID,98.3968,VALID,0,VALID,19.1222,VALID,90,VALID,0.950452,
2000-08-15, 03:16:00,VALID,918.218,VALID,0,VALID,98.3802,VALID,-0.0169808,VALID,19.113,VALID,110,VALID,1.59649,
2000-08-15, 03:17:00,VALID,918.225,VALID,0,VALID,98.4184,VALID,0,VALID,19.109,VALID,103,VALID,1.43222,
2000-08-15, 03:18:00,VALID,918.197,VALID,0,VALID,98.468,VALID,-0.0169808,VALID,19.0991,VALID,99,VALID,0.898232,
2000-08-15, 03:19:00,VALID,918.194,VALID,0,VALID,98.487,VALID,0,VALID,19.1023,VALID,116,VALID,0.548986,
2000-08-15, 03:20:00,VALID,918.2,VALID,0,VALID,98.4375,VALID,0,VALID,19.0765,VALID,107,VALID,0.26727,
2000-08-15, 03:21:00,VALID,918.204,VALID,0,VALID,98.4464,VALID,0,VALID,19.067,VALID,107,VALID,0.221495,
2000-08-15, 03:22:00,VALID,918.198,VALID,0,VALID,98.4311,VALID,0.0169808,VALID,19.0571,VALID,103,VALID,1.36607,
2000-08-15, 03:23:00,VALID,918.174,VALID,0,VALID,98.4438,VALID,0,VALID,19.0536,VALID,81,VALID,0.847356,
2000-08-15, 03:24:00,VALID,918.185,VALID,0,VALID,98.4031,VALID,0.0339617,VALID,19.0409,VALID,98,VALID,1.24361,
2000-08-15, 03:25:00,VALID,918.173,VALID,0,VALID,98.365,VALID,0.0169808,VALID,19.025,VALID,85,VALID,1.38214,
2000-08-15, 03:26:00,VALID,918.14,VALID,0,VALID,98.3383,VALID,0.0169808,VALID,19.0089,VALID,332,VALID,0.666174,
2000-08-15, 03:27:00,VALID,918.153,VALID,0,VALID,98.2963,VALID,0,VALID,18.9925,VALID,90,VALID,1.7103,
2000-08-15, 03:28:01,VALID,918.133,VALID,0,VALID,98.3408,VALID,0,VALID,18.983,VALID,96,VALID,1.5956,
2000-08-15, 03:29:00,VALID,918.127,VALID,0,VALID,98.3523,VALID,0,VALID,18.9703,VALID,89,VALID,1.01975,
2000-08-15, 03:30:00,VALID,918.113,VALID,0,VALID,98.4031,VALID,0.0169808,VALID,18.9639,VALID,97,VALID,1.21525,
2000-08-15, 03:31:00,VALID,918.096,VALID,0,VALID,98.4235,VALID,0,VALID,18.9574,VALID,94,VALID,0.884713,
2000-08-15, 03:32:00,VALID,918.105,VALID,0,VALID,98.379,VALID,0,VALID,18.9443,VALID,94,VALID,1.38925,
2000-08-15, 03:33:00,VALID,918.088,VALID,0,VALID,98.3726,VALID,0.0169808,VALID,18.9346,VALID,95,VALID,1.72821,
2000-08-15, 03:34:00,VALID,918.109,VALID,0,VALID,98.3802,VALID,0.0339617,VALID,18.9316,VALID,99,VALID,1.50296,
2000-08-15, 03:35:00,VALID,918.117,VALID,0,VALID,98.4095,VALID,0,VALID,18.9281,VALID,92,VALID,1.72903,
2000-08-15, 03:36:00,VALID,918.118,VALID,0,VALID,98.4273,VALID,0,VALID,18.951,VALID,97,VALID,1.19468,
2000-08-15, 03:37:00,VALID,918.111,VALID,0,VALID,98.3993,VALID,0,VALID,18.9413,VALID,96,VALID,0.955804,